Location: Unspecified
(0.0000°N, 0.0000°E)
Time: 15:10:06
(UTC+00:00)

A-11 Canister half - Pass Details

Date: 20 May 2026
Orbit: 1524 x 1684 km, 47.3° (Epoch: 7 June)

Event Time Altitude Azimuth Distance (km) Brightness Sun altitude
Rises 22:16:54 0° 348° (NNW) 4,876 12.0 -58.4°
Reaches altitude 10° 22:21:20 10° 4° (N) 3,911 11.3 -59.2°
Enters shadow 22:21:30 10° 5° (N) 3,882 11.3 -59.2°
Maximum altitude 22:28:02 20° 47° (NE) 3,225 - -60.4°
Drops below altitude 10° 22:34:44 10° 89° (E) 3,942 - -61.6°
Sets 22:39:09 0° 105° (ESE) 4,928 - -62.3°
